CAPE
1110 854 841 985 859 697 626 558 357 168 128 144 1 0 196 238 55 0 1 4 151 89 13 7 2 8 4 3 2 0 0 0 0 0 5 0 0 0 0 2 2 0 0
1103 1028 844 990 861 803 624 469 233 104 67 0 0 0 275 34 0 0 1 7 21 18 15 12 3 8 4 2 1 0 0 0 0 1 17 9 0 0 0 69 89 147 0
1079 1151 932 1055 1007 825 691 432 235 147 13 0 0 373 175 2 1 0 1 10 20 16 10 3 6 5 1 0 0 0 0 0 5 10 20 15 1 66 102 13 85 2 0
1125 1097 1228 1207 968 863 789 470 128 10 0 0 35 402 25 8 0 0 3 9 12 2 1 6 6 2 1 0 0 0 0 1 1 22 11 0 3 18 35 6 3 84 97
1033 1139 1198 1262 1013 950 723 352 103 0 2 0 227 330 114 81 1 0 3 6 9 3 4 5 2 0 0 0 0 0 0 0 1 0 0 0 0 4 0 0 0 0 3
714 1337 1139 1216 1077 896 634 435 121 0 1 13 229 503 350 124 0 0 0 0 0 4 5 1 0 0 0 0 0 0 0 0 0 0 0 0 0 0 0 0 0 0 0
1297 1145 1106 1242 1024 809 555 149 0 0 12 51 169 610 554 146 0 0 0 0 0 0 0 0 0 0 0 0 0 0 0 0 0 0 0 0 0 0 0 0 0 0 0
1023 1011 1173 1025 860 695 304 28 0 0 86 69 57 336 661 116 7 0 0 0 0 0 0 0 0 0 0 0 0 0 0 0 0 0 0 0 0 0 0 0 0 0 0
747 939 1197 988 658 455 135 47 0 43 159 149 21 169 313 43 15 23 0 0 7 0 0 0 0 0 0 0 0 0 0 0 0 0 6 0 0 0 0 0 0 0 0
641 735 1058 834 543 256 97 30 0 43 138 160 134 139 55 15 20 24 26 9 0 8 0 0 0 0 0 0 0 0 0 0 0 0 0 0 0 0 0 0 0 0 0
678 614 1035 767 561 341 139 9 0 0 42 37 37 18 8 9 13 2 44 6 0 0 0 0 0 0 0 0 0 0 0 0 0 0 0 0 0 0 0 0 0 0 0
675 806 1113 573 384 298 227 7 0 0 0 6 11 0 0 19 15 36 17 4 2 0 0 0 0 0 0 0 0 0 0 0 0 0 0 0 0 0 5 0 0 0 0
795 922 810 619 482 393 278 131 23 0 0 0 0 0 0 0 0 1 0 0 0 0 0 0 0 0 0 0 0 0 0 0 0 0 0 0 0 0 2 17 0 0 0
698 793 702 799 647 511 426 301 263 123 23 0 0 0 0 0 0 0 0 0 0 0 0 0 0 0 0 0 0 0 0 0 0 0 0 0 0 0 0 0 35 0 0
922 792 554 731 738 596 456 282 350 208 163 45 2 0 0 0 0 0 0 0 0 0 0 0 0 0 0 0 0 0 0 0 0 0 0 0 0 0 0 0 1 35 1
970 926 862 784 903 706 504 421 327 236 269 237 144 44 19 6 0 0 0 0 0 0 0 0 0 0 0 0 0 0 0 0 0 0 0 0 0 0 0 0 0 0 3
914 993 853 749 822 730 565 542 380 443 309 288 294 176 80 31 9 0 0 0 0 0 0 0 0 0 0 0 0 0 0 0 0 0 0 0 0 0 0 0 0 0 0
786 1026 969 994 950 717 659 655 526 382 293 293 257 237 229 128 41 12 0 0 31 13 0 0 0 0 0 0 1 0 4 6 2 1 0 0 0 0 0 0 0 0 0
747 1107 992 918 836 627 757 693 547 308 377 288 399 450 407 289 196 162 98 78 90 129 170 135 107 77 16 2 5 5 5 12 5 56 25 24 30 38 8 2 0 0 0
668 939 945 1181 955 922 802 694 610 599 496 586 599 591 566 524 451 366 344 319 255 138 131 131 92 65 42 66 5 21 5 5 44 36 35 62 39 33 7 0 0 0 0
8 787 936 1048 1006 880 904 622 612 716 675 789 738 799 599 493 448 456 425 408 324 272 243 165 118 39 6 111 78 0 0 29 43 53 11 41 0 0 0 0 0 0 0
0 44 528 1085 1053 898 1029 1011 874 753 839 780 785 871 879 773 698 534 397 420 359 387 407 425 370 161 115 44 49 32 15 0 0 0 2 5 0 0 0 0 0 0 0
0 0 0 433 976 980 998 1049 932 718 751 780 858 965 834 605 423 496 403 299 287 250 242 245 153 104 9 7 10 35 18 8 3 0 16 8 0 0 0 0 0 0 0
0 0 0 0 256 334 611 886 890 734 763 603 521 449 147 44 11 3 13 18 32 30 26 10 1 2 4 4 3 5 30 35 32 2 0 2 0 0 0 0 0 0 0
0 0 0 0 0 0 74 488 550 486 193 0 0 0 0 0 0 0 0 0 0 0 0 0 0 0 0 0 0 0 2 4 15 22 10 0 12 17 0 0 0 0 0
0 0 0 0 0 0 0 0 0 4 0 0 0 0 0 0 0 0 0 0 0 0 0 0 0 0 0 0 0 1 2 7 6 2 1 0 15 6 5 0 0 0 0
CIN
-98 -114 -65 -7 -4 -3 -4 -4 -33 -102 -131 -142 -33 -0 -98 -82 -196 -0 -0 -33 -95 -116 -51 -1 -2 -0 -0 -0 -0 -0 -0 -0 -0 -0 -7 -0 -0 -0 -0 -5 -0 -0 -0
-134 -92 -71 -5 -3 -2 -6 -9 -55 -115 -143 -0 -0 -0 -59 -107 -0 -0 -0 -0 -15 -18 -2 -3 -0 -0 -0 -0 -0 -0 -0 -0 -0 -7 -6 -12 -0 -0 -0 -5 -102 -75 -0
-143 -77 -54 -10 -3 -6 -6 -12 -52 -87 -218 -0 -0 -33 -100 -43 -0 -0 -0 -0 -0 -1 -1 -0 -0 -0 -0 -0 -0 -0 -0 -3 -23 -24 -17 -14 -0 -15 -16 -1 -0 -0 -0
-124 -85 -28 -12 -10 -8 -6 -17 -108 -228 -0 -0 -84 -17 -164 -114 -0 -0 -0 -0 -0 -0 -0 -0 -0 -0 -0 -0 -0 -0 -0 -15 -15 -15 -15 -0 -1 -2 -5 -0 -0 -1 -15
-114 -68 -34 -17 -18 -13 -19 -46 -116 -37 -28 -0 -43 -12 -82 -122 -0 -0 -0 -0 -0 -0 -0 -0 -0 -0 -0 -0 -0 -0 -0 -0 -18 -0 -0 -0 -0 -0 -0 -0 -0 -0 -0
-121 -64 -44 -18 -17 -20 -35 -51 -107 -40 -36 -222 -43 -3 -15 -94 -0 -0 -0 -0 -0 -0 -0 -0 -0 -0 -0 -0 -0 -0 -0 -0 -0 -2 -0 -0 -0 -0 -0 -0 -0 -0 -0
-88 -81 -51 -17 -17 -24 -43 -114 -0 -0 -260 -162 -63 -10 -10 -97 -0 -0 -0 -0 -0 -0 -0 -0 -0 -0 -0 -0 -0 -0 -0 -0 -0 -0 -0 -0 -0 -0 -0 -0 -0 -0 -0
-94 -87 -40 -35 -28 -30 -87 -200 -0 -0 -131 -147 -178 -40 -20 -158 -50 -0 -0 -0 -0 -0 -0 -0 -0 -0 -0 -0 -0 -0 -0 -0 -0 -0 -0 -0 -0 -0 -0 -0 -0 -0 -0
-95 -83 -36 -47 -66 -64 -131 -184 -0 -198 -106 -105 -284 -104 -70 -225 -144 -176 -0 -0 -164 -0 -0 -0 -0 -0 -0 -0 -0 -0 -0 -0 -0 -0 -188 -0 -0 -0 -0 -0 -0 -0 -0
-74 -80 -50 -59 -80 -112 -166 -207 -0 -212 -133 -112 -137 -142 -240 -211 -205 -217 -225 -261 -0 -259 -0 -0 -0 -0 -0 -0 -0 -0 -0 -0 -0 -0 -0 -0 -0 -0 -0 -0 -0 -0 -0
-47 -61 -38 -56 -75 -81 -151 -231 -0 -0 -205 -211 -198 -266 -231 -222 -219 -85 -204 -229 -0 -0 -0 -0 -0 -0 -0 -0 -0 -0 -0 -0 -0 -0 -0 -0 -0 -0 -0 -0 -0 -0 -0
-33 -20 -12 -60 -91 -97 -123 -246 -0 -0 -17 -56 -224 -0 -20 -215 -224 -204 -255 -196 -142 -0 -0 -0 -0 -0 -0 -0 -0 -0 -0 -0 -0 -0 -0 -0 -0 -0 -20 -0 -0 -0 -0
-17 -12 -20 -46 -65 -88 -104 -157 -202 -0 -0 -0 -0 -0 -0 -0 -0 -37 -0 -0 -0 -0 -0 -0 -0 -0 -0 -0 -0 -0 -0 -0 -0 -0 -0 -0 -0 -0 -6 -75 -0 -0 -0
-26 -19 -14 -28 -49 -64 -73 -85 -94 -134 -189 -0 -0 -0 -0 -0 -0 -0 -0 -0 -0 -0 -0 -0 -0 -0 -0 -0 -0 -0 -0 -0 -0 -0 -0 -0 -0 -0 -0 -0 -56 -0 -0
-8 -17 -21 -12 -29 -51 -67 -85 -65 -86 -108 -150 -84 -0 -0 -0 -0 -0 -0 -0 -0 -0 -0 -0 -0 -0 -0 -0 -0 -0 -0 -0 -0 -0 -0 -0 -0 -0 -0 -0 -4 -30 -0
-5 -9 -15 -14 -4 -20 -49 -59 -60 -63 -77 -74 -125 -146 -172 -171 -0 -0 -0 -0 -0 -0 -0 -0 -0 -0 -0 -0 -0 -0 -0 -0 -0 -0 -0 -0 -0 -0 -0 -0 -0 -0 -0
-27 -18 -10 -17 -7 -10 -15 -21 -44 -28 -42 -69 -84 -112 -116 -156 -187 -0 -0 -0 -0 -0 -0 -0 -0 -0 -0 -0 -0 -0 -0 -0 -0 -0 -0 -0 -0 -0 -0 -0 -0 -0 -0
-25 -4 -11 -10 -7 -8 -12 -11 -15 -29 -45 -55 -76 -77 -86 -94 -133 -159 -0 -0 -94 -16 -0 -0 -0 -0 -0 -0 -1 -1 -4 -6 -5 -9 -0 -0 -0 -0 -0 -0 -0 -0 -0
-17 -3 -2 -3 -9 -17 -4 -15 -14 -48 -31 -48 -30 -25 -32 -48 -62 -73 -90 -90 -66 -40 -27 -28 -23 -17 -23 -7 -8 -7 -5 -6 -10 -9 -6 -5 -6 -8 -14 -21 -0 -0 -0
-22 -4 -14 -5 -12 -3 -5 -7 -9 -10 -12 -5 -4 -7 -7 -8 -14 -26 -22 -13 -11 -18 -21 -14 -12 -7 -14 -12 -5 -6 -8 -10 -8 -7 -10 -17 -9 -10 -13 -1 -0 -0 -0
-79 -13 -5 -9 -21 -22 -11 -13 -11 -9 -8 -6 -8 -3 -1 -4 -4 -6 -7 -3 -8 -7 -5 -3 -7 -10 -8 -5 -4 -0 -0 -12 -14 -13 -11 -28 -0 -0 -0 -0 -0 -0 -0
-0 -69 -42 -7 -20 -27 -3 -5 -8 -14 -11 -13 -11 -7 -5 -4 -5 -5 -6 -5 -7 -7 -6 -4 -7 -10 -13 -6 -2 -5 -4 -0 -0 -0 -3 -17 -8 -0 -0 -0 -0 -0 -0
-0 -0 -0 -50 -11 -21 -11 -3 -7 -22 -19 -14 -9 -4 -10 -14 -27 -14 -20 -27 -24 -24 -19 -15 -20 -15 -6 -11 -10 -4 -2 -3 -13 -0 -14 -29 -0 -0 -0 -0 -0 -0 -0
-0 -0 -0 -0 -123 -87 -56 -26 -34 -42 -19 -22 -21 -38 -101 -157 -65 -34 -19 -15 -108 -98 -68 -40 -3 -1 -2 -3 -3 -3 -4 -4 -0 -1 -0 -21 -0 -9 -0 -0 -0 -0 -0
-0 -0 -0 -0 -0 -0 -207 -86 -81 -76 -114 -0 -0 -0 -0 -0 -0 -0 -0 -0 -0 -0 -0 -0 -0 -0 -0 -0 -0 -0 -1 -4 -4 -0 -2 -0 -16 -43 -1 -0 -0 -0 -0
-0 -0 -0 -0 -0 -0 -0 -0 -0 -110 -0 -0 -0 -0 -0 -0 -0 -0 -0 -0 -0 -0 -0 -0 -0 -0 -0 -0 -0 -2 -1 -2 -3 -4 -2 -0 -6 -27 -72 -0 -0 -0 -0
Wind_Speed
7 12 13 13 15 15 15 15 16 17 17 18 18 19 19 20 18 17 18 18 20 21 21 22 23 24 24 25 25 26 27 27 28 29 30 29 28 28 29 29 29 28 28
11 13 14 13 14 14 15 15 16 16 17 17 18 19 20 19 20 19 18 19 19 20 21 22 23 24 25 25 26 26 27 27 27 28 29 31 29 29 29 30 28 28 28
12 12 12 14 13 14 14 15 16 16 16 16 18 19 19 20 20 20 20 20 20 20 21 22 23 24 25 25 26 26 26 27 26 25 25 29 28 28 28 29 30 29 29
12 12 12 13 13 14 14 15 16 16 16 16 17 18 19 20 20 21 21 21 21 22 23 23 23 24 24 25 25 25 25 24 25 26 27 27 27 28 28 28 28 28 28
11 13 12 13 13 14 15 15 15 15 15 15 14 18 19 20 21 21 22 22 22 22 23 23 23 24 24 25 24 24 25 24 26 26 27 27 27 27 28 28 27 26 26
10 11 12 12 13 13 15 15 15 15 15 14 14 17 19 19 20 21 21 21 21 22 22 22 23 23 24 24 24 24 25 25 26 26 27 27 27 28 28 28 28 27 26
9 9 10 12 12 13 13 14 14 14 14 14 14 14 18 19 19 20 20 21 21 21 22 22 22 23 23 23 23 24 24 25 26 25 25 26 27 27 28 28 28 28 27
7 7 8 10 11 12 12 12 12 12 12 12 12 13 17 18 19 18 19 19 20 20 20 21 21 21 21 22 22 22 22 23 24 23 23 24 24 26 26 27 27 28 27
6 6 6 8 10 9 10 10 10 10 8 8 13 13 16 17 16 17 18 18 18 19 19 19 19 19 20 20 21 21 20 20 22 21 20 22 23 23 25 25 26 26 26
3 6 5 5 6 7 7 9 9 8 8 8 10 11 13 14 15 16 16 16 17 17 17 17 17 18 18 18 18 19 17 16 17 17 18 20 21 21 22 23 24 24 25
3 2 4 5 4 5 5 7 8 6 6 7 8 10 12 13 13 14 14 14 15 15 15 15 15 16 15 15 15 15 14 13 14 18 17 18 19 18 19 21 22 22 23
7 5 3 2 1 2 3 5 6 6 5 6 7 8 10 10 11 12 13 12 13 13 12 12 13 13 12 11 12 13 13 12 15 16 15 16 17 17 17 18 19 20 20
9 8 5 2 1 1 3 4 4 6 5 5 5 7 7 9 10 11 11 11 10 10 10 10 10 10 10 12 14 12 12 16 14 15 14 14 16 15 16 15 16 18 18
15 8 7 5 3 1 3 6 7 6 6 5 8 5 10 12 11 10 9 9 9 8 8 7 8 7 10 12 11 11 14 14 14 14 14 13 14 14 14 15 14 15 16
14 13 9 7 5 6 5 8 15 11 7 9 8 10 11 11 11 12 12 11 11 10 11 11 12 14 12 12 12 12 12 12 11 11 13 12 12 14 13 13 14 12 13
14 12 12 11 10 7 8 8 13 15 11 11 9 11 13 13 13 12 12 13 13 13 13 13 14 12 14 14 13 12 13 13 12 12 12 12 12 13 14 13 13 12 11
17 16 15 14 13 11 11 9 12 17 15 11 11 10 12 13 14 13 13 12 12 13 12 14 15 17 18 18 17 15 14 14 14 15 14 13 12 13 14 14 14 13 11
17 15 13 13 12 12 11 12 16 17 16 17 13 13 10 12 12 13 13 15 15 12 12 14 15 15 15 15 15 15 15 15 13 13 15 16 16 15 14 14 15 14 12
20 16 15 13 11 12 13 12 14 19 18 15 14 13 11 11 11 12 14 15 14 15 16 14 15 16 19 20 22 22 21 19 19 20 20 19 19 17 16 17 18 16 15
18 17 16 15 14 13 12 12 12 14 16 17 13 12 11 12 12 12 15 17 17 17 17 18 20 20 20 20 21 22 23 23 22 20 20 19 21 23 20 21 22 20 16
19 17 16 17 15 15 13 14 15 14 15 15 18 19 15 16 16 14 17 19 20 20 20 21 22 23 24 24 26 25 24 22 21 19 17 18 20 18 20 22 22 20 20
21 20 20 16 16 17 15 14 14 16 17 16 15 17 20 22 20 21 21 21 22 23 23 23 24 25 25 24 26 29 30 26 24 21 17 16 17 19 19 21 22 22 22
20 22 20 19 16 16 16 15 15 15 17 17 17 16 19 20 23 22 23 24 24 24 25 26 26 27 29 28 25 24 30 29 27 24 20 17 18 19 20 22 23 21 22
23 20 20 21 20 19 17 17 17 20 22 23 21 19 20 21 24 26 26 26 26 26 26 27 27 27 27 28 26 23 24 27 31 31 22 18 17 18 20 21 20 20 21
23 22 20 20 20 21 21 20 20 21 21 20 20 21 23 23 23 25 26 27 27 27 27 28 29 28 27 27 27 27 26 26 24 26 27 23 19 18 18 16 19 20 22
23 24 22 22 20 19 20 21 22 21 20 22 23 24 24 24 24 25 27 28 28 28 29 29 28 28 27 27 27 26 26 25 24 23 23 22 20 19 16 16 18 19 22
Wind_Direction
71 94 89 79 76 67 57 53 50 43 36 36 38 46 46 44 37 36 37 41 44 50 48 45 43 40 42 42 42 42 47 53 53 52 46 47 50 45 40 35 41 47 45
91 94 91 83 74 68 59 55 45 43 40 37 45 53 52 42 38 38 41 44 48 49 48 45 42 44 45 45 44 46 55 61 60 57 51 38 51 44 39 33 43 48 45
92 93 89 84 75 68 62 53 46 42 41 44 53 54 51 45 39 40 45 48 49 49 49 48 46 48 49 47 46 47 53 54 51 62 68 45 49 42 37 30 34 42 41
94 93 87 83 76 69 63 55 51 47 48 49 54 54 52 46 42 43 49 53 53 56 55 51 49 48 49 49 45 46 42 24 21 45 41 40 39 30 28 30 33 35 35
96 94 87 83 76 72 65 59 54 50 51 52 43 63 56 50 45 47 50 54 56 57 57 53 49 46 49 49 43 41 32 14 33 46 41 36 35 34 32 32 32 35 35
102 95 90 81 78 69 66 61 52 53 54 53 48 59 59 53 49 50 53 54 56 57 55 52 50 47 52 50 46 41 32 21 35 46 43 37 39 36 36 34 33 34 35
108 95 89 84 74 70 64 54 50 52 57 55 49 44 63 55 52 51 53 55 58 59 58 56 52 48 47 49 45 43 42 27 34 42 42 41 40 37 35 34 33 34 33
115 103 94 85 77 71 59 48 43 48 47 52 46 42 65 59 52 50 51 53 55 57 58 56 51 46 44 42 42 45 51 47 38 45 48 44 41 36 33 32 31 32 31
122 110 101 88 81 69 54 41 37 45 14 25 62 48 63 57 45 50 55 56 56 56 55 53 48 42 42 43 43 45 55 52 40 44 48 42 38 35 31 30 30 30 30
163 121 115 98 76 63 47 32 32 39 23 19 46 50 54 42 47 49 51 50 53 54 51 48 43 39 41 44 44 45 55 58 56 49 43 37 33 34 30 28 27 27 26
197 184 133 116 97 74 46 26 25 23 15 21 30 46 54 47 51 56 57 46 45 47 46 44 41 41 49 57 53 50 57 57 51 34 38 35 32 31 29 27 24 24 24
221 229 206 147 115 49 29 27 18 13 9 4 11 21 51 55 51 52 45 42 42 43 46 46 44 45 55 60 53 45 49 45 33 29 32 31 29 27 26 25 23 22 22
238 240 240 239 227 290 317 348 7 354 9 13 18 29 51 13 14 19 24 32 41 51 51 55 49 48 49 34 25 32 33 18 25 25 30 30 25 23 21 21 20 20 19
243 240 240 251 254 252 321 306 313 336 326 339 335 4 335 335 354 7 25 31 38 46 46 57 42 43 31 17 25 24 15 17 20 20 21 25 21 19 17 16 16 15 16
246 260 257 250 254 271 287 292 294 303 315 315 324 319 327 337 343 340 347 360 8 18 12 9 10 0 6 11 12 10 12 14 17 16 15 17 16 13 11 9 7 8 10
252 258 258 267 274 274 280 286 290 290 299 303 313 312 311 320 328 337 344 345 350 354 354 357 356 0 358 357 0 2 2 1 3 3 4 5 5 3 1 358 356 357 357
262 265 266 267 270 274 280 283 285 289 292 298 303 311 309 312 322 331 337 346 350 352 355 351 349 343 342 342 344 348 351 351 352 352 352 351 352 351 350 350 348 345 344
264 266 263 267 269 273 276 279 282 290 289 293 299 301 307 312 321 327 333 331 337 348 350 346 344 344 344 344 344 344 344 344 343 344 344 343 342 341 341 342 341 341 338
265 262 265 266 267 272 280 280 281 285 289 291 295 299 304 312 319 325 328 330 335 336 338 341 340 338 335 334 334 334 334 334 333 335 336 337 338 337 337 341 341 340 338
267 267 267 268 273 276 281 285 286 287 287 292 298 300 306 311 315 321 322 324 328 329 332 332 330 330 330 330 330 329 328 329 330 329 331 334 336 337 342 342 342 343 342
268 266 266 270 272 276 276 278 280 282 286 296 292 296 303 307 312 315 317 319 322 323 324 326 326 325 325 326 326 326 325 326 326 323 325 332 336 343 343 342 342 345 346
264 266 268 268 269 273 278 280 285 285 289 292 295 295 296 295 303 307 314 315 316 317 319 320 321 320 321 323 322 324 324 327 327 328 325 332 338 340 344 345 346 346 347
266 262 265 269 268 272 273 278 284 290 294 295 299 299 303 306 302 305 309 310 311 313 313 314 315 316 315 318 318 319 322 322 330 336 336 335 337 337 339 341 342 343 345
262 264 266 267 267 271 274 275 277 281 283 289 295 299 301 305 304 304 308 309 311 312 313 313 314 314 315 314 317 316 314 315 318 322 331 332 331 333 335 340 345 348 349
264 263 263 266 269 270 271 274 277 280 286 292 295 297 300 304 308 309 310 310 311 313 313 313 313 314 315 314 314 315 315 316 318 316 317 322 326 332 335 343 348 347 345
267 265 264 265 267 270 273 274 276 277 285 289 291 294 297 303 307 310 311 311 311 311 312 313 314 314 314 315 315 315 313 314 317 316 316 318 319 327 334 342 344 343 343